Location: La B�doule
(43.2468°N, 5.5934°E)
Time: 21:47:27
(UTC+00:00)

Cosmos 2150 Rocket - Pass Details

Date: 07 June 2020
Orbit: 750 x 807 km, 74.0° (Epoch: 04 July)

Event Time Altitude Azimuth Distance (km) Brightness Sun altitude
Rises 01:24:46 0° 335° (NNW) 3,213 7.8 -19.4°
Reaches altitude 10° 01:27:11 10° 330° (NNW) 2,281 6.9 -19.2°
Maximum altitude 01:32:11 52° 255° (WSW) 935 4.1 -18.8°
Enters shadow 01:33:54 36° 203° (SSW) 1,177 4.4 -18.7°
